Terug naar catalogus

DUMSAT

ActiefWetenschapVLEO
NORAD 26086·PAYLOAD·🇷🇺 Russia

Gelanceerd Feb 8, 2000 vanaf Baikonur Cosmodrome

Loading…

Volgende Passages (komende 24 uur)

TLE

VersSource: Space-Track

Epoch: Sep 14, 2026, 03:05 UTC

1 26086U 00009A   26257.12890028  .00000074  00000-0  20483-4 0  9995
2 26086  64.8516 148.3258 0019688 261.6833  98.2051 14.97255866451554

Volg DUMSAT in realtime met AllMySat

Download on the App Store